www.pogodaiklimat.ru

Погода и климат >> Архив погоды >> Финляндия >> Рованиеми Апукка


ПОГОДА в Рованиеми Апукка

  • Прогноз погоды в Рованиеми Апукка
  • Монитор погоды в Рованиеми Апукка

АРХИВ ПОГОДЫ в Рованиеми Апукка

Время (UTC), дата Ветер
(напр.,м/с)
 
Видим.   Явления Облачность Т
(С)
Тd
(С)
f
(%)
Тe
(С)
Тes
(С)
Комфортность P
(гПа)
Po
(гПа)
Тmin
(С)
Tmax
(С)
R
(мм)
R24
(мм)
S
(см)
13 16.09 С 3 н/о н/о +8.3 +6.0 85 +6 +6 995.3 982.4
14 16.09 С 4 н/о н/о +8.0 +5.4 84 +5 +5 995.5 982.6
15 16.09 С 3-5
{5}
н/о н/о +8.8 +4.8 76 +6 +6 995.6 982.8
16 16.09 С 2 н/о н/о +7.9 +3.7 75 +6 +6 995.8 982.9
17 16.09 С 2 н/о н/о +6.5 +3.2 79 +4 +4 996.0 983.1
18 16.09 С 2-4
{4}
н/о н/о +6.0 +3.5 84 +4 +4 996.2 983.2 +4.5 +8.8
19 16.09 С 3-4
{4}
н/о н/о +5.8 +3.5 85 +3 +3 996.4 983.4
20 16.09 С 3-4
{4}
н/о н/о +4.8 +3.2 89 +1 +1 996.6 983.6
21 16.09 С 3-4
{4}
н/о н/о +4.9 +3.5 91 +1 +1 996.9 983.8
22 16.09 С 2 н/о н/о +5.2 +4.2 93 +2 +2 997.0 984.0
23 16.09 С 3-5
{5}
н/о н/о +5.6 +4.6 93 +2 +2 997.0 984.0
00 17.09 С 3-5
{5}
н/о н/о +5.9 +4.6 91 +3 +3 997.2 984.2
01 17.09 С 2-4
{5}
н/о н/о +5.9 +4.7 92 +3 +3 997.4 984.4
02 17.09 С 2-4
{4}
н/о н/о +5.9 +4.7 92 +3 +3 997.5 984.5
03 17.09 С 2 н/о н/о +5.7 +4.8 94 +3 +3 997.7 984.6
04 17.09 СВ 2 н/о н/о +6.0 +4.9 93 +3 +3 997.9 984.8
05 17.09 СВ 2 н/о н/о +6.2 +4.8 91 +4 +4 998.2 985.2
06 17.09 СВ 2-3
{3}
н/о н/о +6.5 +4.9 90 +4 +4 998.7 985.7 +4.6 +6.5
07 17.09 СВ 2-4
{4}
н/о н/о +6.9 +4.9 87 +5 +5 999.1 986.1
08 17.09 СВ 3-6
{6}
н/о н/о +6.6 +5.3 91 +3 +3 999.7 986.7
09 17.09 СВ 3-6
{6}
н/о н/о +6.6 +3.6 81 +4 +4 1000.5 987.5
10 17.09 СВ 3 н/о н/о +7.1 +2.1 70 +4 +4 1000.8 987.8
11 17.09 СВ 3 н/о н/о +7.2 +2.6 73 +4 +4 1001.3 988.3
12 17.09 СВ 3-6
{7}
н/о н/о +7.5 +1.7 67 +5 +5 1001.8 988.8
13 17.09 СВ 3-8
{8}
н/о н/о +7.9 +0.8 61 +6 +6 1001.9 989.0
14 17.09 СВ 2 н/о н/о +7.5 +0.6 62 +6 +6 1002.2 989.2
15 17.09 СВ 3-6
{6}
н/о н/о +7.9 -0.7 55 +6 +6 1002.5 989.5
16 17.09 С 2 н/о н/о +5.8 -0.2 65 +4 +4 1003.0 989.9
17 17.09 С 2-3
{3}
н/о н/о +3.2 +0.4 82 0 0 1003.6 990.4
18 17.09 С 2-3
{3}
н/о н/о +2.8 0.0 82 -0 -0 1004.0 990.7 +1.9 +8.3
19 17.09 С 2 н/о н/о +2.2 -0.1 85 -1 -1 1004.4 991.1
20 17.09 С 2 н/о н/о +1.8 -0.4 85 -2 -2 1004.9 991.6
21 17.09 С 2-3
{3}
н/о н/о +2.1 -0.4 84 -1 -1 1005.6 992.3
22 17.09 С 2 н/о н/о +2.3 -0.3 83 -1 -1 1005.9 992.6
23 17.09 С 2 н/о н/о +1.7 -0.4 86 -2 -2 1006.2 992.9
00 18.09 С 1-2
{3}
н/о н/о -0.8 -1.5 95 -3 -3 1006.8 993.3
01 18.09 С 1-2
{2}
н/о н/о -0.6 -0.8 99 -3 -3 1006.9 993.5
02 18.09 СЗ 2 н/о н/о -2.0 -2.3 98 -6 -6 1007.4 993.8
03 18.09 СЗ 1-1
{2}
н/о н/о -2.5 -2.8 98 -5 -5 1007.7 994.2
04 18.09 З 1 н/о н/о -2.7 -3.0 98 -5 -5 1008.1 994.5
05 18.09 З 1-2
{2}
н/о н/о -1.6 -2.0 97 -4 -4 1008.3 994.8
06 18.09 З 1-2
{2}
н/о н/о -0.1 -0.9 94 -2 -2 1008.9 995.4 -2.8 +2.9
07 18.09 З 1-2
{3}
н/о н/о +2.1 +0.8 91 0 0 1008.9 995.6
08 18.09 З 1-1
{3}
н/о н/о +4.1 +1.5 83 +3 +3 1009.2 995.9
09 18.09 СЗ 1-2
{2}
н/о н/о +5.7 +0.9 71 +5 +5 1009.3 996.1
10 18.09 С 2 н/о н/о +6.7 +0.3 64 +5 +5 1009.3 996.2
11 18.09 С 2-3
{5}
н/о н/о +7.3 -1.7 53 +6 +6 1009.4 996.3
12 18.09 С 2-3
{4}
н/о н/о +6.9 -0.8 58 +5 +5 1009.6 996.5
13 18.09 С 1 н/о н/о +7.3 -1.3 54 +7 +7 1009.6 996.5
14 18.09 СЗ 2-3
{4}
н/о н/о +6.8 -1.4 56 +5 +5 1009.6 996.5
15 18.09 СЗ 2-3
{4}
н/о н/о +6.9 -1.1 57 +5 +5 1009.7 996.6
16 18.09 З 2 н/о н/о +5.5 -0.5 65 +3 +3 1009.9 996.7
17 18.09 СЗ 2 н/о н/о +3.5 +0.4 80 +1 +1 1010.4 997.1
18 18.09 З 1-2
{2}
н/о н/о +1.2 0.0 92 -1 -1 1010.7 997.3 -0.1 +7.9
19 18.09 СЗ 1 н/о н/о +1.6 +0.4 92 -0 -0 1010.8 997.4
20 18.09 штиль 0-1
{2}
н/о н/о -0.6 -1.0 97 -2 -2 1011.0 997.5
21 18.09 штиль 0-1
{2}
н/о н/о -1.0 -1.4 97 -2 -2 1011.1 997.6
22 18.09 З 1-2
{2}
н/о н/о -0.4 -0.7 98 -3 -3 1011.2 997.7
23 18.09 З 1 н/о н/о -0.9 -1.1 99 -3 -3 1011.4 997.8
00 19.09 З 2-3
{3}
н/о н/о -0.3 -0.4 99 -4 -4 1011.6 998.1
01 19.09 СЗ 2 н/о н/о -0.3 -0.6 98 -4 -4 1011.7 998.2
02 19.09 З 2 н/о н/о -0.4 -0.7 98 -4 -4 1011.6 998.1
03 19.09 З 2-3
{4}
н/о н/о -1.5 -1.8 98 -6 -6 1011.7 998.1
04 19.09 З 3 н/о н/о -1.6 -1.9 98 -7 -7 1011.9 998.3
05 19.09 З 3 н/о н/о -1.3 -1.5 99 -6 -6 1012.0 998.4
06 19.09 СЗ 3-5
{5}
н/о н/о +0.2 -0.5 95 -5 -5 1012.2 998.7 -1.8 +1.6
07 19.09 СЗ 3-6
{6}
н/о н/о +0.9 0.0 94 -4 -4 1012.2 998.7
08 19.09 СЗ 3-4
{5}
н/о н/о +2.0 -0.1 86 -2 -2 1012.4 999.0
09 19.09 З 3-5
{5}
н/о н/о +4.0 +0.3 77 0 0 1012.4 999.1
10 19.09 СЗ 3 н/о н/о +5.0 +0.4 72 +2 +2 1012.4 999.2
11 19.09 СЗ 3 н/о н/о +6.1 0.0 65 +3 +3 1012.3 999.1
12 19.09 СЗ 4-6
{7}
н/о н/о +6.6 -2.2 53 +3 +3 1012.2 999.0
13 19.09 З 4 н/о н/о +7.1 -2.5 50 +4 +4 1011.9 998.8
14 19.09 СЗ 4 н/о н/о +6.8 -2.4 52 +4 +4 1011.7 998.5
15 19.09 З 3-6
{10}
н/о н/о +4.8 +0.5 74 +1 +1 1012.0 998.7
16 19.09 З 3 н/о н/о +3.5 +0.5 81 -0 -0 1012.0 998.7
17 19.09 З 2 н/о н/о +2.4 +0.4 87 -1 -1 1012.1 998.8
18 19.09 СЗ 2 н/о н/о +1.0 -0.1 92 -3 -3 1012.1 998.7 +0.2 +7.6
19 19.09 СЗ 2-3
{3}
н/о н/о +1.0 0.0 93 -3 -3 1011.9 998.4
20 19.09 З 2-3
{3}
н/о н/о +1.1 -0.1 92 -2 -2 1011.8 998.3
21 19.09 З 1-2
{3}
н/о н/о +1.0 -0.2 92 -1 -1 1011.6 998.1
22 19.09 СЗ 2 н/о н/о +1.0 -0.4 90 -3 -3 1011.6 998.1
23 19.09 СЗ 3-4
{4}
н/о н/о +1.5 -0.7 85 -3 -3 1011.6 998.2
00 20.09 З 2-3
{4}
н/о н/о +1.0 -1.0 86 -2 -2 1011.2 997.8
01 20.09 З 2-4
{4}
н/о н/о +0.1 -1.5 89 -4 -4 1010.8 997.3
02 20.09 З 2 н/о н/о -0.7 -1.6 94 -5 -5 1010.6 997.1
03 20.09 З 2-4
{4}
н/о н/о -1.1 -2.0 94 -5 -5 1010.4 996.9
04 20.09 З 2 н/о н/о -1.2 -2.0 94 -5 -5 1010.5 997.0
05 20.09 З 3-4
{4}
н/о н/о -0.7 -1.6 94 -6 -6 1010.5 996.9
06 20.09 СЗ 3 н/о н/о +1.5 -0.7 85 -3 -3 1010.3 996.9 -1.3 +1.5 <0.5
07 20.09 СЗ 3-4
{7}
н/о н/о +3.1 -0.4 78 -1 -1 1010.2 996.9
08 20.09 СЗ 3-5
{6}
н/о н/о +4.6 -0.1 72 +1 +1 1010.2 996.9
09 20.09 СЗ 3-5
{5}
н/о н/о +5.9 -0.1 65 +3 +3 1010.1 996.9
10 20.09 СЗ 4 н/о н/о +6.2 -0.2 64 +3 +3 1010.1 996.9
11 20.09 З 4 н/о н/о +7.4 +0.2 60 +4 +4 1009.7 996.6
12 20.09 СЗ 4-7
{7}
н/о н/о +8.6 +0.2 56 +6 +6 1009.7 996.6
13 20.09 СЗ 3 н/о н/о +7.9 -0.5 55 +6 +6 1009.6 996.5
14 20.09 З 4 н/о н/о +7.2 -0.1 60 +4 +4 1009.5 996.3
15 20.09 З 2-5
{5}
н/о н/о +7.1 +0.4 62 +5 +5 1009.2 996.1
16 20.09 З 2 н/о н/о +5.6 +0.5 70 +3 +3 1009.2 996.0
17 20.09 З 1 н/о н/о +3.2 +0.4 82 +2 +2 1009.5 996.2
18 20.09 СЗ 1 н/о н/о -0.3 -0.8 96 -3 -3 1009.3 995.9 -0.3 +8.8
19 20.09 СЗ 2-2
{3}
н/о н/о 0.0 -0.6 96 -4 -4 1009.3 995.8
20 20.09 СЗ 2 н/о н/о -0.6 -1.0 97 -5 -5 1009.3 995.8
21 20.09 СЗ 1-2
{2}
н/о н/о -2.1 -2.3 99 -5 -5 1009.1 995.5
22 20.09 СЗ 1 н/о н/о -2.7 -3.0 98 -5 -5 1008.9 995.3
23 20.09 штиль 0 н/о н/о -3.3 -3.7 97 -5 -5 1008.8 995.2
00 21.09 СЗ 1-1
{2}
н/о н/о -2.9 -3.2 98 -5 -5 1008.5 994.9
01 21.09 СЗ 1-2
{2}
н/о н/о -2.2 -2.7 96 -5 -5 1008.3 994.7
02 21.09 штиль 0 н/о н/о -2.8 -3.1 98 -4 -4 1008.4 994.8
03 21.09 штиль 0
{1}
н/о н/о -3.3 -3.6 98 -5 -5 1008.3 994.7
04 21.09 штиль 0 н/о н/о -4.1 -4.5 97 -5 -5 1008.2 994.6
05 21.09 штиль 0
{1}
н/о н/о -3.7 -4.1 97 -5 -5 1008.4 994.8
06 21.09 штиль 0 н/о н/о -1.8 -2.2 97 -3 -3 1008.3 994.8 -4.3 +0.3 <0.5
07 21.09 СЗ 1 н/о н/о -0.6 -1.1 96 -3 -3 1008.2 994.8
08 21.09 СЗ 1 н/о н/о +1.1 +0.3 94 -1 -1 1008.4 995.0
09 21.09 СЗ 1-2
{2}
н/о н/о +2.7 +0.7 87 +1 +1 1008.4 995.1
10 21.09 С 1 н/о н/о +4.6 +0.4 74 +3 +3 1008.5 995.2
11 21.09 С 3 н/о н/о +5.9 -0.7 63 +3 +3 1008.4 995.2
12 21.09 С 2-3
{5}
н/о н/о +6.0 -0.4 63 +4 +4 1008.4 995.2
13 21.09 СЗ 2-2
{4}
н/о н/о +6.3 -0.3 63 +4 +4 1008.6 995.4
14 21.09 СЗ 3-6
{6}
н/о н/о +6.7 -0.6 60 +4 +4 1008.5 995.3
15 21.09 З 3-4
{4}
н/о н/о +6.2 -0.6 62 +3 +3 1008.4 995.2
16 21.09 С 4 н/о н/о +4.8 -0.1 71 +1 +1 1009.1 995.8
17 21.09 СЗ 3 н/о н/о +3.5 +0.3 80 -0 -0 1009.5 996.2
18 21.09 СЗ 2 н/о н/о +1.7 0.0 88 -2 -2 1010.3 996.9 -1.8 +6.8
19 21.09 З 2 н/о н/о +0.3 -0.3 96 -3 -3 1010.7 997.3
20 21.09 СЗ 1-3
{4}
н/о н/о -0.2 -0.9 95 -2 -2 1011.3 997.8
21 21.09 СЗ 2-3
{4}
н/о н/о -0.2 -0.9 95 -4 -4 1012.0 998.5
22 21.09 СЗ 2 н/о н/о -0.5 -1.1 96 -4 -4 1012.5 999.0
23 21.09 З 2-3
{4}
н/о н/о -0.8 -1.3 96 -5 -5 1013.2 999.7
00 22.09 З 2-3
{4}
н/о н/о -1.1 -1.7 96 -5 -5 1013.9 1000.3
01 22.09 З 2 н/о н/о -1.0 -1.5 96 -5 -5 1014.6 1001.0
02 22.09 З 2-3
{3}
н/о н/о -1.3 -1.8 96 -5 -5 1015.3 1001.7
03 22.09 СЗ 1-3
{4}
н/о н/о -0.8 -1.2 97 -3 -3 1016.1 1002.5
04 22.09 С 3 н/о н/о +0.4 -0.4 94 -4 -4 1016.9 1003.3
05 22.09 С 2 н/о н/о +0.7 -0.4 92 -3 -3 1017.6 1004.0
06 22.09 С 2 н/о н/о +2.0 +0.2 88 -1 -1 1018.1 1004.7 -1.7 +2.0 <0.5
07 22.09 СЗ 3-5
{5}
н/о н/о +2.2 +0.4 88 -2 -2 1018.4 1004.9
08 22.09 СЗ 4-5
{7}
н/о н/о +3.7 +0.5 80 -1 -1 1018.8 1005.3
09 22.09 С 4-6
{8}
н/о н/о +4.9 -0.4 69 +1 +1 1018.7 1005.4
10 22.09 С 4 н/о н/о +5.9 -0.9 62 +2 +2 1019.0 1005.7
11 22.09 С 5 н/о н/о +6.0 -1.1 60 +2 +2 1019.3 1006.0
12 22.09 С 4-6
{9}
н/о н/о +6.0 -1.4 59 +3 +3 1019.5 1006.2
13 22.09 С 4 н/о н/о +6.2 -0.5 62 +3 +3 1019.6 1006.3
14 22.09 СЗ 6 н/о н/о +5.0 -0.5 68 0 0 1019.9 1006.6
15 22.09 СЗ 4-7
{8}
н/о н/о +4.8 0.0 71 +1 +1 1020.3 1007.0
16 22.09 СЗ 3-6
{6}
н/о н/о +4.1 0.0 75 +1 +1 1020.5 1007.1
17 22.09 СЗ 2 н/о н/о +3.0 -0.5 78 0 0 1020.7 1007.2
18 22.09 СЗ 2 н/о н/о +1.8 -0.6 84 -1 -1 1021.2 1007.6 +1.8 +6.5
19 22.09 СЗ 3-4
{5}
н/о н/о +1.1 -0.6 88 -3 -3 1021.2 1007.6
20 22.09 СЗ 2-2
{4}
н/о н/о 0.0 -1.2 92 -4 -4 1021.3 1007.7
21 22.09 СЗ 4-6
{7}
н/о н/о +1.3 -1.1 84 -4 -4 1021.5 1007.9
22 22.09 СЗ 3 н/о н/о +0.7 -1.5 85 -4 -4 1021.8 1008.2
23 22.09 СЗ 3 н/о н/о -0.1 -1.3 92 -5 -5 1022.1 1008.5
00 23.09 С 3-5
{5}
н/о н/о +1.6 -0.6 85 -3 -3 1022.1 1008.6
01 23.09 СЗ 3 н/о н/о +1.4 -0.5 87 -3 -3 1022.2 1008.6
02 23.09 СЗ 4 н/о н/о +1.8 -0.5 85 -3 -3 1022.2 1008.7
03 23.09 СЗ 3-5
{6}
н/о н/о +0.9 -0.8 88 -4 -4 1022.2 1008.7
04 23.09 СЗ 3-5
{5}
н/о н/о +0.4 -1.2 89 -4 -4 1022.4 1008.7
05 23.09 СЗ 3 н/о н/о +0.4 -1.2 89 -4 -4 1022.4 1008.8
06 23.09 СЗ 3 н/о н/о +1.0 -1.0 86 -3 -3 1022.3 1008.7 -0.7 +1.8 <0.5
07 23.09 СЗ 3 н/о н/о +1.4 -1.0 84 -3 -3 1022.3 1008.7
08 23.09 СЗ 3-5
{5}
н/о н/о +2.2 -1.0 79 -2 -2 1022.0 1008.5
09 23.09 СЗ 3-5
{6}
н/о н/о +3.2 -0.9 74 -1 -1 1021.9 1008.4
10 23.09 СЗ 4 н/о н/о +4.1 -1.3 68 0 0 1021.6 1008.2
11 23.09 СЗ 4 н/о н/о +5.0 -2.0 61 +1 +1 1021.1 1007.7
12 23.09 С 5-8
{8}
н/о н/о +5.2 -3.2 55 +1 +1 1020.8 1007.4

 

Местоположение метеостанции Рованиеми Апукка (Финляндия): широта 66.58 долгота 26.01 высота над уровнем моря 106 м.

В архиве по умолчанию представлена погода в Рованиеми Апукка за последнюю неделю. Архивные данные за месяц целиком и за предыдущие месяцы, начиная с января 2011 года, Вы можете получить, выбрав интересующий диапазон дат из раскрывающегося списка и нажав кнопку "Ввод!".


*Определитесь, кто Вы:
робот инопланетянин человек

Внимание! Время в таблицах - всемирное. Для получения местного времени необходимо прибавить поправку, которая равна 1 ч.

Смотрите также архив погоды в соседних городах и на ближайших метеорологических станциях:

Погода в Рованиеми аэропорту (Финляндия) (9 км)
Погода в Рованиеми (Финляндия) (16 км)
Погода на Аэродроме Кемиярви (Финляндия) (53 км)
Погода в Мелтосярви (Финляндия) (60 км)
Погода в Аэропорту Рануа (Финляндия) (70 км)
Погода в Пюхе (Финляндия) (72 км)
Погода в Соданкюля (Финляндия) (92 км)
Погода в Пелло (Финляндия) (93 км)
Погода в Кеми аэропорту (Финляндия) (110 км)
Погода в Йлинярви (Швеция) (112 км)

Пояснения к столбцам:

Ветер - указаны скорость ветра в м/с - средняя за 10 мин, порывы в срок и между сроками (в фигурных скобках) и направление, откуда дует ветер: С - северный, СВ - северо-восточный, В - восточный, ЮВ - юго-восточный, Ю - южный, ЮЗ - юго-западный, З - западный, СЗ - северо-западный.
Видимость - горизонтальная дальность видимости в метрах или километрах. При видимости от 1 до 10 км при отсутствии осадков обычно наблюдается дымка, при ухудшении видимости до 1 км и менее - туман. В сухую погоду видимость может ухудшаться дымом, пылью или мглою.
Явления - указаны атмосферные явления, наблюдавшиеся в срок или в последний час перед сроком; фигурными скобками обозначены явления, наблюдавшиеся между сроками (за 1-3 часа до срока); квадратными скобками обозначены град или гололедные отложения с указанием их диаметра в мм.
Облачность - указаны через наклонную черту общая и нижняя облачность в баллах и высота нижней границы облаков в метрах; квадратными скобками обозначены формы облаков: Ci - перистые, Cs - перисто-слоистые, Cc - перисто-кучевые, Ac - высококучевые, As - высокослоистые, Sc - слоисто-кучевые, Ns - слоисто-дождевые, Cu - кучевые, Cb - кучево-дождевые. Подробнее классификацию облаков см. в Атласе облаков (PDF).
T - Температура воздуха - температура, измеренная на высоте 2 м над землей.
Td - Температура точки росы - температура, при понижении до которой содержащийся в воздухе водяной пар достигнет насыщения.
f - Относительная влажность воздуха - влажноcть воздуха, измеренная на высоте 2 м над землей.
Te - Эффективная температура - температура, которую ощущает одетый по сезону человек в тени. Характеристика душности погоды. При расчете учитывается влияние влажности воздуха и скорости ветра на теплоощущения человека.
Tes - Эффективная температура на солнце - температура, которую ощущает человек, с поправкой на солнечный нагрев. Характеристика знойности погоды. Зависит от высоты солнца над горизонтом, облачности и скорости ветра. Ночью, в пасмурную погоду, а также при ветре 12 м/с и более поправка равна нулю.
P - Атмосферное давление - приведенное к уровню моря атмосферное давление.
Po - Атмосферное давление - измеренное на уровне метеостанции атмосферное давление.
Tmin - Минимальная температура - минимум температуры воздуха на высоте 2 м над землей.
Tmax - Максимальная температура - максимум температуры воздуха на высоте 2 м над землей.
R - Количество осадков - Количество выпавших осадков за период времени, мм. При наведении курсора мыши на число - период времени, за который выпало указанное количество осадков.
R24 - Количество осадков - Количество выпавших осадков за 24 часа, мм.
S - Снежный покров - Высота снежного покрова, см. При наведении курсора мыши на число - состояние снежного покрова и степень покрытия местности в баллах.